map of EBL home
Great Circle Mapper logo
EBL - Airport
Location
City:  Erbil, Iraq
Name:Erbil International Airport
Old (Alt.):Irbil Northwest
ICAO:ORER
IATA:EBL

Details
Type:Airport (Aerodrome, Airfield)
Use:Public/Civil, Military, International (customs port of entry)
Latitude:3614'17"N (36.238056)
Longitude:4356'48"E (43.946667)
Elevation:1363 ft (415 m)
Variation:5.13E (WMM2015 magnetic declination)
0.07 annual change
Runways:1
Longest:9186 × 98 ft (2800 × 30 m)

Time
Time Zone:UTC+3 (DST+4)

Weather
METAR:ORER 052100Z VRB03KT 7000 NSC 18/08 Q1014 NOSIG
TAF:ORER 051600Z 0518/0618 17008KT 8000 FEW030
TEMPO 0606/0615 -SHRA BKN030 PROB40 G18KT 4000 -TS FEW025CB

Related Locations
Nearby:
Farthest:GMR: 11521 mi / 18542 km
Mangareva [Totegegie], Gambier Islands, PF

Find:

   beyond  
but within

Other Information
Maps:
NOTAMs:
Links:
Sources:

  
flag of Iraq   

Sectional Chart

Flight Planning
at skyvector.com

Satellite Image

Google Maps Satellite view

 

Copyright © 2004-2016 Karl L. Swartz. All rights reserved.
The Great Circle Mapper name and logo are trademarks of the Great Circle Mapper.
All other trademarks mentioned herein belong to their respective owners.
Please see credits for attibutions and further copyright information.

  Follow gcmap on Facebook Follow gcmap on Twitter Follow gcmap on Google+ GCmap on LinkedIn

hCard Microformat

Geo Microformat